Weather History for Ravenna, OH

Change the Weather History Date:

Monday, April 28, 2014

  Actual Average (KCAK) Record (KCAK)
Temperature  
Mean Temperature 46 °F 54 °F  
Max Temperature 52 °F 64 °F 88 °F (1986)
Min Temperature 41 °F 43 °F 25 °F (1947)
Degree Days  
Heating Degree Days 18 12  
Month to date heating degree days 457  
Since 1 July heating degree days 5852  
Cooling Degree Days 0 0  
Month to date cooling degree days 0  
Year to date cooling degree days 0  
Moisture  
Dew Point 39 °F    
Average Humidity 75    
Maximum Humidity 100    
Minimum Humidity 49    
Precipitation  
Precipitation 0.16 in 0.11 in 1.39 in (1958)
Month to date precipitation 3.32  
Year to date precipitation 11.22  
Snow  
Snow 0.00 in 0.00 in - ()
Month to date snowfall 2.7  
Since 1 July snowfall 47.4  
Snow Depth -    
Sea Level Pressure  
Sea Level Pressure 29.93 in    
Wind  
Wind Speed 12 mph (East)    
Max Wind Speed 18 mph    
Max Gust Speed 29 mph    
Visibility 10 miles    
Events Rain    
T = Trace of Precipitation, MM = Missing Value Source: NWS Daily Summary

Daily Weather History Graph

Daily Weather History Graph

Search for Another Location

Airport:

Trip Planner

Search our weather history database for the weather conditions in past years. The results will help you decide how hot, cold, wet, or windy it might be!

Date:

Astronomy

Apr. 28, 2014 Rise Set
Actual Time 6:26 AM EDT 8:19 PM EDT
Civil Twilight 5:56 AM EDT 8:48 PM EDT
Nautical Twilight 5:20 AM EDT 9:25 PM EDT
Astronomical Twilight 4:41 AM EDT 10:04 PM EDT
Moon 6:04 AM EDT (4/28) 7:55 PM EDT (4/28)
Length of Visible Light 14h 51m
Length of Day
13h 52m
Waning Crescent, 0% of the Moon is Illuminated
Apr 28
Waning Crescent
Apr 29
New
May 6
First Quarter
May 14
Full
May 21
Last Quarter

Hourly Weather History & Observations

Time (EDT) Temp. Windchill Dew Point Humidity Pressure Visibility Wind Dir Wind Speed Gust Speed Precip Events Conditions
12:16 AM 44.6 °F 39.2 °F 32.4 °F 62% 30.06 in 10.0 mi ENE 10.4 mph - N/A   Clear
12:35 AM 44.8 °F 39.0 °F 32.7 °F 63% 30.04 in 10.0 mi ENE 11.5 mph - N/A   Clear
12:56 AM 44.2 °F 38.8 °F 32.5 °F 63% 30.03 in 10.0 mi ENE 10.4 mph - N/A   Clear
1:16 AM 43.7 °F 38.6 °F 32.7 °F 65% 30.02 in 10.0 mi ENE 9.2 mph - N/A   Clear
1:35 AM 43.0 °F 37.7 °F 32.5 °F 67% 30.03 in 10.0 mi East 9.2 mph - N/A   Clear
1:56 AM 43.0 °F 38.2 °F 32.7 °F 67% 30.03 in 10.0 mi ENE 8.1 mph - N/A   Clear
2:16 AM 42.6 °F 36.8 °F 32.9 °F 68% 30.01 in 10.0 mi ENE 10.4 mph - N/A   Clear
2:36 AM 42.8 °F 36.6 °F 32.5 °F 67% 30.01 in 10.0 mi ENE 11.5 mph - N/A   Clear
2:56 AM 42.4 °F 36.1 °F 32.4 °F 68% 30.01 in 10.0 mi ENE 11.5 mph - N/A   Clear
3:16 AM 42.4 °F 37.0 °F 32.2 °F 67% 30.01 in 10.0 mi ENE 9.2 mph - N/A   Clear
3:36 AM 42.4 °F 37.0 °F 32.0 °F 67% 30.02 in 10.0 mi East 9.2 mph - N/A   Clear
4:16 AM 42.1 °F 36.1 °F 32.0 °F 67% 30.01 in 10.0 mi East 10.4 mph - N/A   Clear
4:36 AM 42.3 °F 35.9 °F 32.0 °F 67% 30.00 in 10.0 mi East 11.5 mph - N/A   Clear
4:56 AM 42.4 °F 36.1 °F 32.0 °F 67% 29.98 in 10.0 mi East 11.5 mph - N/A   Clear
5:16 AM 42.1 °F 35.2 °F 31.8 °F 67% 29.99 in 10.0 mi East 12.7 mph - N/A   Clear
5:36 AM 42.1 °F 35.7 °F 31.8 °F 67% 29.99 in 10.0 mi East 11.5 mph - N/A   Clear
5:55 AM 41.9 °F 35.0 °F 31.6 °F 67% 29.98 in 10.0 mi East 12.7 mph - N/A   Clear
6:16 AM 41.9 °F 34.6 °F 31.8 °F 67% 29.98 in 10.0 mi East 13.8 mph - N/A   Clear
6:35 AM 41.9 °F 34.6 °F 31.6 °F 67% 29.98 in 10.0 mi East 13.8 mph 17.3 mph N/A   Clear
6:56 AM 42.1 °F 34.9 °F 31.8 °F 67% 29.99 in 10.0 mi East 13.8 mph 18.4 mph N/A   Clear
7:16 AM 42.6 °F 35.2 °F 31.8 °F 66% 29.98 in 10.0 mi East 15.0 mph 18.4 mph N/A   Clear
7:36 AM 43.3 °F 35.2 °F 31.8 °F 64% 29.96 in 10.0 mi East 18.4 mph 21.9 mph N/A   Scattered Clouds
7:55 AM 44.1 °F 37.1 °F 32.0 °F 63% 29.96 in 10.0 mi East 15.0 mph 21.9 mph N/A   Clear
8:16 AM 45.1 °F 38.8 °F 32.0 °F 60% 29.96 in 10.0 mi East 13.8 mph 23.0 mph N/A   Clear
8:35 AM 46.6 °F - 32.2 °F 57% 29.97 in 10.0 mi East 15.0 mph 24.2 mph N/A   Clear
8:56 AM 46.8 °F - 32.0 °F 57% 29.98 in 10.0 mi East 12.7 mph 23.0 mph N/A   Clear
9:16 AM 48.6 °F - 32.7 °F 54% 29.97 in 10.0 mi East 17.3 mph - N/A   Clear
9:35 AM 49.3 °F - 32.9 °F 53% 29.94 in 10.0 mi East 16.1 mph 21.9 mph N/A   Clear
9:56 AM 49.5 °F - 32.5 °F 52% 29.94 in 10.0 mi East 13.8 mph 28.8 mph N/A   Scattered Clouds
10:16 AM 50.5 °F - 32.7 °F 51% 29.94 in 10.0 mi East 17.3 mph 26.5 mph N/A   Scattered Clouds
10:56 AM 52.5 °F - 33.6 °F 49% 29.92 in 10.0 mi East 13.8 mph 24.2 mph N/A   Clear
11:16 AM 52.2 °F - 33.3 °F 49% 29.92 in 10.0 mi ESE 10.4 mph 26.5 mph N/A   Clear
11:35 AM 52.3 °F - 34.0 °F 50% 29.92 in 10.0 mi East 17.3 mph 20.7 mph N/A   Clear
11:56 AM 52.7 °F - 34.2 °F 49% 29.90 in 10.0 mi East 15.0 mph 23.0 mph N/A   Clear
12:16 PM 52.7 °F - 33.8 °F 49% 29.91 in 10.0 mi ESE 13.8 mph 21.9 mph N/A   Mostly Cloudy
12:36 PM 52.7 °F - 34.2 °F 49% 29.93 in 10.0 mi East 9.2 mph - N/A   Overcast
12:55 PM 52.0 °F - 36.1 °F 55% 29.94 in 10.0 mi ESE 4.6 mph - N/A Rain Light Rain
1:16 PM 50.9 °F - 40.1 °F 67% 29.93 in 10.0 mi East 6.9 mph - N/A Rain Light Rain
1:35 PM 50.2 °F - 41.0 °F 71% 29.91 in 10.0 mi ENE 9.2 mph - 0.01 in Rain Light Rain
1:56 PM 50.5 °F - 41.9 °F 72% 29.91 in 10.0 mi East 9.2 mph - 0.01 in Rain Light Rain
2:16 PM 50.5 °F - 42.6 °F 74% 29.91 in 10.0 mi East 10.4 mph - 0.01 in Rain Light Rain
2:35 PM 50.4 °F - 43.3 °F 77% 29.90 in 10.0 mi East 12.7 mph - 0.02 in Rain Light Rain
2:56 PM 50.0 °F - 43.9 °F 79% 29.90 in 10.0 mi East 11.5 mph - 0.05 in Rain Rain
3:16 PM 49.6 °F - 44.1 °F 81% 29.89 in 10.0 mi East 11.5 mph - 0.01 in Rain Light Rain
3:55 PM 49.3 °F - 46.4 °F 90% 29.89 in 10.0 mi East 9.2 mph - 0.05 in Rain Light Rain
4:16 PM 49.1 °F - 46.9 °F 92% 29.88 in 10.0 mi East 9.2 mph - 0.01 in Rain Light Rain
4:36 PM 48.6 °F - 48.7 °F 100% 29.86 in 5.0 mi East 15.0 mph - 0.05 in Rain Light Rain
5:16 PM 49.5 °F - 49.6 °F 100% 29.87 in 10.0 mi East 9.2 mph - N/A   Overcast
5:36 PM 49.8 °F - 48.2 °F 94% 29.86 in 10.0 mi East 12.7 mph - N/A   Overcast
5:55 PM 50.0 °F - 46.9 °F 89% 29.86 in 10.0 mi East 10.4 mph 17.3 mph N/A   Overcast
6:16 PM 50.5 °F - 46.6 °F 86% 29.86 in 10.0 mi East 10.4 mph - N/A   Overcast
6:35 PM 50.2 °F - 46.4 °F 87% 29.88 in 10.0 mi East 12.7 mph - N/A   Overcast
6:56 PM 50.0 °F - 46.4 °F 87% 29.88 in 10.0 mi ESE 8.1 mph - N/A Rain Rain
7:16 PM 49.3 °F - 49.5 °F 100% 29.87 in 7.0 mi East 10.4 mph - N/A   Light Drizzle
7:35 PM 49.3 °F - 49.5 °F 100% 29.85 in 10.0 mi East 13.8 mph - N/A   Overcast
7:56 PM 49.1 °F - 49.3 °F 100% 29.85 in 5.0 mi East 13.8 mph - N/A   Overcast
8:16 PM - - - N/A% 29.83 in 7.0 mi East 15.0 mph - N/A   Overcast
8:36 PM 49.1 °F - 49.1 °F 100% 29.83 in 10.0 mi East 12.7 mph - N/A   Overcast
8:56 PM 49.1 °F - 49.3 °F 100% 29.83 in 10.0 mi East 13.8 mph 20.7 mph N/A   Overcast
9:16 PM 49.3 °F - 49.5 °F 100% 29.83 in 10.0 mi East 13.8 mph 21.9 mph N/A   Overcast
9:35 PM 49.3 °F - 49.5 °F 100% 29.83 in 10.0 mi East 11.5 mph 20.7 mph N/A   Overcast
9:56 PM 49.5 °F - 49.8 °F 100% 29.84 in 10.0 mi ESE 8.1 mph 16.1 mph N/A   Overcast
10:16 PM 49.6 °F - 49.8 °F 100% 29.84 in 10.0 mi ESE 8.1 mph - N/A   Overcast
10:35 PM 49.6 °F - 49.8 °F 100% 29.83 in 10.0 mi East 10.4 mph - N/A   Overcast
10:56 PM 49.6 °F - 50.0 °F 100% 29.83 in 10.0 mi East 10.4 mph - N/A   Overcast
11:16 PM 49.6 °F - 50.0 °F 100% 29.81 in 10.0 mi East 11.5 mph - N/A   Overcast
11:35 PM 49.6 °F - 50.0 °F 100% 29.82 in 10.0 mi East 12.7 mph 17.3 mph N/A   Overcast
11:56 PM 49.8 °F - 50.0 °F 100% 29.82 in 10.0 mi East 10.4 mph - N/A   Overcast